THORAD DELTA 1 DEB, 8177

Orbit data source: Space-Track

THORAD DELTA 1 DEB, 8177 is space debris in SSO originally from a launch on Fri, 15 Nov 1974 UTC launched from the Air Force Western Test Range (AFWTR). Debris objects in space refer to the collection of defunct objects orbiting the Earth. Examples of debris include non-operational satellites, rocket bodies, and fragments generated from explosions, collisions, or faulty payload assembly.

Loading next visibility...
Identifier
8177, 1974-089AT
Orbit
SSO
Country
Flag of USUS
Related business
Manufacturer
Unknown
Mission
Spacecraft
Bus & Motor
Unknown
Mass
Unknown
Launch date (UTC)
1974-11-15 (51 years ago)
Launch vehicle
Unknown
Launch site
Air Force Western Test Range (AFWTR)
Object type
Payload
Rocket body
Debris
Shape & HBR
Unknown shape, 0.2 m
Radar Cross Section
Medium (>0.1 m² and <1 m²)

Expand to show TLE details & history
Last TLE update: 8 hours ago

TLE from 8 hours ago
0 THORAD DELTA 1 DEB
1 08177U 74089AT  25353.92065789  .00000037  00000-0  74511-3 0  9996
2 08177 101.1000 126.3768 0262051 109.9378   7.7175 12.05364608248134
Epoch: 2025-12-19T22:05Z
TLE epoch observation values (Epoch: 2025-12-19T22:05:44.841Z)
Latitude
60.071°
Longitude
-93.99254°
Altitude
1,458.391 km
Speed
7.231 km/s
True Right ascension
21h 44m 47s
True Declination
59° 56' 07"
Sunlit
Object was in daylight at epoch
Visualization orbit readout
Latitude
Unknown
Longitude
Unknown
Altitude
Unknown
Speed
Unknown
Apparent Right ascension
Unknown
Apparent Declination
Unknown
Sunlit
N/A
Visualization observer readout
Local Sidereal Time
05:00:34
Azimuth
Unknown
Elevation
Unknown
Doppler factor
Unknown
Orbital elements
Apogee altitude
1,864.994 km
Perigee altitude
1,444.002 km
Semi-major axis
8,032.635 km
Eccentricity
0.02621
Inclination
101.1°
RAAN
126.3768°
Arg. of periapsis
109.9378°
True anomaly
8.13426°
Mean anomaly
7.7175°
Eccentric anomaly
7.9245°
Mean motion
3.01478 °/min
Orbital period
119.41 mins
BSTAR
0.00074511
Loading maneuver chart data...
Computing Atmospheric mass density...
Loading historical data...
Loading historical data...
Loading historical data...
Loading historical data...
Loading historical data...
Loading historical data...
Loading historical data...

Documentation

Showing up to 5 results
|